UAL1067 SGAS-MPTO

Flight info

Callsign UAL1067
Flight time 5h 39m
Altitude 32000
Route OBLUM OBLUM UN420 BUSMO DCT ISOKO ISOKO2C
Aircraft A21N/M-SDE2E3FGHIRWXY/LB1

Departure

Time 2026-04-24 20:51
Airport Silvio Pettirossi International Airport (SGAS)

Arrival

Time 2026-04-25 02:30
Airport Tocumen International Airport (MPTO)
Time Latitude Longitude Altitude Speed Heading
2026-04-24 20:06 -25.24237 -57.51547 291 ft 0 kts 125°
2026-04-24 20:40 -25.24230 -57.51556 289 ft 4 kts 125°
2026-04-24 20:41 -25.24223 -57.51574 293 ft 4 kts 95°
2026-04-24 20:41 -25.24221 -57.51598 291 ft 4 kts 92°
2026-04-24 20:41 -25.24222 -57.51627 288 ft 4 kts 79°
2026-04-24 20:41 -25.24224 -57.51635 288 ft 1 kts 78°
2026-04-24 20:44 -25.24217 -57.51625 296 ft 3 kts 30°
2026-04-24 20:45 -25.24184 -57.51620 287 ft 6 kts
2026-04-24 20:45 -25.24133 -57.51612 287 ft 9 kts 12°
2026-04-24 20:45 -25.24062 -57.51604 286 ft 12 kts 345°
2026-04-24 20:45 -25.23989 -57.51649 285 ft 12 kts 326°
2026-04-24 20:46 -25.23907 -57.51678 284 ft 13 kts
2026-04-24 20:46 -25.23816 -57.51656 283 ft 14 kts 12°
2026-04-24 20:46 -25.23722 -57.51633 282 ft 14 kts 12°
2026-04-24 20:46 -25.23622 -57.51609 280 ft 15 kts 12°
2026-04-24 20:47 -25.23520 -57.51584 279 ft 15 kts 13°
2026-04-24 20:47 -25.23415 -57.51559 278 ft 16 kts 12°
2026-04-24 20:47 -25.23306 -57.51532 276 ft 16 kts 12°
2026-04-24 20:47 -25.23194 -57.51505 275 ft 17 kts 12°
2026-04-24 20:48 -25.23079 -57.51477 273 ft 17 kts 13°
2026-04-24 20:48 -25.22961 -57.51447 272 ft 18 kts 12°
2026-04-24 20:48 -25.22841 -57.51418 270 ft 18 kts 12°
2026-04-24 20:48 -25.22718 -57.51388 268 ft 18 kts 12°
2026-04-24 20:49 -25.22608 -57.51361 267 ft 13 kts
2026-04-24 20:49 -25.22541 -57.51418 266 ft 14 kts 283°
2026-04-24 20:49 -25.22522 -57.51522 266 ft 11 kts 277°
2026-04-24 20:49 -25.22566 -57.51571 267 ft 6 kts 193°
2026-04-24 20:50 -25.22571 -57.51573 267 ft 0 kts 193°
2026-04-24 20:50 -25.22780 -57.51623 271 ft 65 kts 192°
2026-04-24 20:50 -25.23450 -57.51785 278 ft 131 kts 193°
2026-04-24 20:50 -25.24508 -57.52041 306 ft 176 kts 193°
2026-04-24 20:51 -25.25305 -57.52216 597 ft 175 kts 193°
2026-04-24 20:51 -25.26482 -57.52541 1073 ft 175 kts 198°
2026-04-24 20:51 -25.27665 -57.52902 1554 ft 181 kts 193°
2026-04-24 20:51 -25.28972 -57.53169 1876 ft 197 kts 190°
2026-04-24 20:52 -25.30362 -57.53442 2270 ft 213 kts 192°
2026-04-24 20:52 -25.31869 -57.53817 2622 ft 235 kts 195°
2026-04-24 20:52 -25.33533 -57.54293 2906 ft 257 kts 195°
2026-04-24 20:52 -25.35312 -57.54745 3493 ft 267 kts 193°
2026-04-24 20:53 -25.37156 -57.55152 4154 ft 272 kts 193°
2026-04-24 20:53 -25.39003 -57.55617 4886 ft 273 kts 202°
2026-04-24 20:53 -25.40543 -57.56806 5397 ft 275 kts 236°
2026-04-24 20:53 -25.41254 -57.58718 6072 ft 269 kts 265°
2026-04-24 20:54 -25.41207 -57.60745 6912 ft 259 kts 278°
2026-04-24 20:54 -25.40958 -57.62731 7540 ft 265 kts 281°
2026-04-24 20:54 -25.40541 -57.64746 8102 ft 270 kts 286°
2026-04-24 20:54 -25.39974 -57.66705 8875 ft 267 kts 292°
2026-04-24 20:55 -25.38917 -57.68389 9367 ft 274 kts 319°
2026-04-24 20:55 -25.37327 -57.69561 10004 ft 275 kts 329°
2026-04-24 20:55 -25.35510 -57.70330 10332 ft 293 kts 348°
2026-04-24 20:55 -25.33417 -57.70604 10535 ft 310 kts 348°
2026-04-24 20:56 -25.31277 -57.71118 10839 ft 321 kts 342°
2026-04-24 20:56 -25.29089 -57.71768 11253 ft 328 kts 342°
2026-04-24 20:56 -25.26872 -57.72419 11849 ft 331 kts 343°
2026-04-24 20:56 -25.24636 -57.73067 12454 ft 333 kts 343°
2026-04-24 20:57 -25.22383 -57.73717 13046 ft 336 kts 343°
2026-04-24 20:57 -25.20111 -57.74375 13629 ft 339 kts 343°
2026-04-24 20:57 -25.17826 -57.75034 14165 ft 341 kts 342°
2026-04-24 20:57 -25.15517 -57.75697 14654 ft 344 kts 342°
2026-04-24 20:58 -25.13187 -57.76366 15152 ft 348 kts 342°
2026-04-24 20:58 -25.10838 -57.77039 15637 ft 351 kts 342°
2026-04-24 20:58 -25.08468 -57.77721 16120 ft 354 kts 342°
2026-04-24 20:58 -25.06073 -57.78411 16576 ft 358 kts 342°
2026-04-24 20:59 -25.03652 -57.79108 17039 ft 361 kts 342°
2026-04-24 20:59 -25.01209 -57.79808 17510 ft 364 kts 342°
2026-04-24 20:59 -24.98743 -57.80512 17965 ft 367 kts 342°
2026-04-24 20:59 -24.96259 -57.81224 18390 ft 371 kts 342°
2026-04-24 21:00 -24.93756 -57.81940 18781 ft 373 kts 341°
2026-04-24 21:00 -24.91241 -57.82662 19187 ft 375 kts 341°
2026-04-24 21:00 -24.88707 -57.83387 19586 ft 377 kts 341°
2026-04-24 21:00 -24.86194 -57.84105 19972 ft 379 kts 341°
2026-04-24 21:01 -24.83603 -57.84845 20345 ft 381 kts 341°
2026-04-24 21:01 -24.81026 -57.85581 20699 ft 384 kts 341°
2026-04-24 21:01 -24.78474 -57.86313 21055 ft 386 kts 341°
2026-04-24 21:01 -24.75864 -57.87059 21428 ft 388 kts 340°
2026-04-24 21:02 -24.73248 -57.87808 21788 ft 390 kts 340°
2026-04-24 21:02 -24.70614 -57.88563 22149 ft 392 kts 340°
2026-04-24 21:02 -24.67970 -57.89316 22502 ft 394 kts 340°
2026-04-24 21:02 -24.65306 -57.90078 22855 ft 396 kts 340°
2026-04-24 21:03 -24.62638 -57.90837 23195 ft 398 kts 340°
2026-04-24 21:03 -24.59948 -57.91600 23512 ft 400 kts 340°
2026-04-24 21:03 -24.57251 -57.92367 23791 ft 401 kts 340°
2026-04-24 21:03 -24.54548 -57.93133 24095 ft 402 kts 340°
2026-04-24 21:04 -24.51852 -57.93950 24393 ft 400 kts 336°
2026-04-24 21:04 -24.49335 -57.95182 24683 ft 394 kts 325°
2026-04-24 21:04 -24.47089 -57.96878 24970 ft 391 kts 319°
2026-04-24 21:04 -24.44930 -57.98691 25251 ft 392 kts 319°
2026-04-24 21:05 -24.42767 -58.00522 25520 ft 393 kts 319°
2026-04-24 21:05 -24.40590 -58.02344 25805 ft 394 kts 319°
2026-04-24 21:05 -24.38399 -58.04169 26088 ft 396 kts 319°
2026-04-24 21:05 -24.36203 -58.05991 26358 ft 397 kts 320°
2026-04-24 21:06 -24.33989 -58.07823 26567 ft 400 kts 320°
2026-04-24 21:06 -24.31756 -58.09664 26786 ft 403 kts 320°
2026-04-24 21:06 -24.29513 -58.11516 27045 ft 404 kts 320°
2026-04-24 21:06 -24.27265 -58.13369 27315 ft 405 kts 321°
2026-04-24 21:07 -24.25009 -58.15232 27578 ft 407 kts 321°
2026-04-24 21:07 -24.22744 -58.17099 27841 ft 408 kts 321°
2026-04-24 21:07 -24.20476 -58.18975 28102 ft 409 kts 321°
2026-04-24 21:07 -24.18200 -58.20847 28365 ft 410 kts 321°
2026-04-24 21:08 -24.15909 -58.22725 28626 ft 411 kts 321°
2026-04-24 21:08 -24.13616 -58.24607 28881 ft 412 kts 321°
2026-04-24 21:08 -24.11319 -58.26495 29089 ft 414 kts 321°
2026-04-24 21:08 -24.09013 -58.28395 29286 ft 416 kts 321°
2026-04-24 21:09 -24.06693 -58.30300 29505 ft 418 kts 322°
2026-04-24 21:09 -24.04361 -58.32211 29727 ft 419 kts 322°
2026-04-24 21:09 -24.02023 -58.34128 29951 ft 420 kts 322°
2026-04-24 21:09 -23.99685 -58.36051 30151 ft 422 kts 322°
2026-04-24 21:10 -23.97332 -58.37980 30346 ft 423 kts 322°
2026-04-24 21:10 -23.94976 -58.39910 30528 ft 424 kts 322°
2026-04-24 21:10 -23.92614 -58.41839 30749 ft 424 kts 322°
2026-04-24 21:10 -23.90260 -58.43764 30981 ft 423 kts 321°
2026-04-24 21:11 -23.87900 -58.45695 31162 ft 424 kts 322°
2026-04-24 21:11 -23.85540 -58.47630 31337 ft 424 kts 321°
2026-04-24 21:11 -23.83181 -58.49561 31559 ft 424 kts 322°
2026-04-24 21:11 -23.80823 -58.51492 31779 ft 424 kts 321°
2026-04-24 21:12 -23.78470 -58.53429 31960 ft 424 kts 321°
2026-04-24 21:12 -23.76111 -58.55372 31997 ft 425 kts 321°
2026-04-24 21:12 -23.71431 -58.59236 31976 ft 424 kts 321°
2026-04-24 21:13 -23.66718 -58.63112 31954 ft 424 kts 321°
2026-04-24 21:13 -23.61956 -58.67021 31963 ft 427 kts 321°
2026-04-24 21:14 -23.57242 -58.70886 31967 ft 427 kts 321°
2026-04-24 21:14 -23.52498 -58.74775 31965 ft 427 kts 321°
2026-04-24 21:15 -23.47753 -58.78658 31965 ft 427 kts 321°
2026-04-24 21:15 -23.43006 -58.82539 31960 ft 427 kts 321°
2026-04-24 21:16 -23.38249 -58.86430 31967 ft 429 kts 321°
2026-04-24 21:16 -23.33477 -58.90323 31968 ft 429 kts 321°
2026-04-24 21:17 -23.28705 -58.94216 31965 ft 429 kts 321°
2026-04-24 21:17 -23.24737 -58.97457 31964 ft 428 kts 321°
2026-04-24 21:18 -23.19160 -59.01993 31956 ft 429 kts 321°
2026-04-24 21:18 -23.14381 -59.05882 31965 ft 429 kts 322°
2026-04-24 21:19 -23.09600 -59.09774 31964 ft 429 kts 321°
2026-04-24 21:19 -23.04830 -59.13668 31965 ft 429 kts 321°
2026-04-24 21:20 -22.97647 -59.19485 31967 ft 429 kts 322°
2026-04-24 21:21 -22.92849 -59.23361 31963 ft 431 kts 322°
2026-04-24 21:21 -22.88038 -59.27255 31967 ft 432 kts 322°
2026-04-24 21:22 -22.83226 -59.31152 31966 ft 432 kts 322°
2026-04-24 21:22 -22.78413 -59.35036 31964 ft 431 kts 322°
2026-04-24 21:23 -22.73606 -59.38922 31965 ft 431 kts 322°
2026-04-24 21:23 -22.68820 -59.42783 31964 ft 433 kts 322°
2026-04-24 21:24 -22.63989 -59.46679 31964 ft 433 kts 322°
2026-04-24 21:24 -22.59154 -59.50572 31967 ft 433 kts 322°
2026-04-24 21:25 -22.54325 -59.54456 31962 ft 432 kts 322°
2026-04-24 21:25 -22.49494 -59.58341 31961 ft 432 kts 322°
2026-04-24 21:26 -22.44661 -59.62218 31964 ft 433 kts 322°
2026-04-24 21:26 -22.39826 -59.66099 31965 ft 433 kts 322°
2026-04-24 21:27 -22.34987 -59.69980 31964 ft 433 kts 322°
2026-04-24 21:27 -22.30146 -59.73866 31967 ft 434 kts 322°
2026-04-24 21:28 -22.25295 -59.77751 31965 ft 434 kts 322°
2026-04-24 21:28 -22.20448 -59.81636 31965 ft 434 kts 322°
2026-04-24 21:29 -22.15602 -59.85514 31965 ft 434 kts 322°
2026-04-24 21:29 -22.10752 -59.89395 31967 ft 434 kts 322°
2026-04-24 21:30 -22.05903 -59.93269 31964 ft 434 kts 322°
2026-04-24 21:30 -22.01078 -59.97116 31968 ft 434 kts 322°
2026-04-24 21:31 -21.96228 -60.00985 31965 ft 434 kts 322°
2026-04-24 21:31 -21.91376 -60.04848 31966 ft 434 kts 322°
2026-04-24 21:32 -21.86529 -60.08722 31965 ft 434 kts 322°
2026-04-24 21:32 -21.81675 -60.12586 31965 ft 434 kts 322°
2026-04-24 21:33 -21.76815 -60.16442 31964 ft 434 kts 322°
2026-04-24 21:33 -21.71960 -60.20288 31962 ft 432 kts 323°
2026-04-24 21:34 -21.67120 -60.24123 31957 ft 432 kts 323°
2026-04-24 21:34 -21.62292 -60.27986 31963 ft 432 kts 322°
2026-04-24 21:35 -21.57452 -60.31826 31961 ft 432 kts 323°
2026-04-24 21:35 -21.52603 -60.35652 31962 ft 432 kts 323°
2026-04-24 21:36 -21.47760 -60.39471 31953 ft 431 kts 323°
2026-04-24 21:36 -21.42931 -60.43279 31965 ft 430 kts 323°
2026-04-24 21:37 -21.38113 -60.47089 31966 ft 431 kts 323°
2026-04-24 21:37 -21.33273 -60.50893 31965 ft 431 kts 323°
2026-04-24 21:38 -21.29255 -60.54059 31961 ft 431 kts 323°
2026-04-24 21:38 -21.24413 -60.57870 31954 ft 431 kts 323°
2026-04-24 21:39 -21.19589 -60.61670 31956 ft 431 kts 323°
2026-04-24 21:39 -21.14766 -60.65486 31960 ft 431 kts 323°
2026-04-24 21:40 -21.09934 -60.69274 31951 ft 431 kts 323°
2026-04-24 21:40 -21.04990 -60.72907 31954 ft 431 kts 326°
2026-04-24 21:41 -20.99972 -60.76423 31950 ft 432 kts 326°
2026-04-24 21:41 -20.94947 -60.79953 31957 ft 432 kts 326°
2026-04-24 21:42 -20.89920 -60.83481 31956 ft 432 kts 326°
2026-04-24 21:42 -20.84891 -60.86998 31945 ft 432 kts 326°
2026-04-24 21:43 -20.79857 -60.90504 31949 ft 432 kts 326°
2026-04-24 21:43 -20.74824 -60.94019 31953 ft 432 kts 326°
2026-04-24 21:44 -20.69790 -60.97536 31942 ft 433 kts 326°
2026-04-24 21:44 -20.64748 -61.01055 31946 ft 433 kts 326°
2026-04-24 21:45 -20.59700 -61.04564 31949 ft 433 kts 326°
2026-04-24 21:45 -20.54660 -61.08075 31951 ft 433 kts 326°
2026-04-24 21:46 -20.49617 -61.11590 31949 ft 433 kts 326°
2026-04-24 21:46 -20.44570 -61.15100 31947 ft 434 kts 326°
2026-04-24 21:47 -20.39517 -61.18615 31939 ft 434 kts 326°
2026-04-24 21:47 -20.34471 -61.22132 31944 ft 434 kts 326°
2026-04-24 21:48 -20.29414 -61.25640 31938 ft 434 kts 326°
2026-04-24 21:48 -20.24394 -61.29123 31945 ft 434 kts 326°
2026-04-24 21:49 -20.19332 -61.32629 31942 ft 435 kts 326°
2026-04-24 21:49 -20.14255 -61.36142 31936 ft 434 kts 327°
2026-04-24 21:50 -20.09187 -61.39642 31945 ft 434 kts 327°
2026-04-24 21:50 -20.04117 -61.43140 31938 ft 435 kts 327°
2026-04-24 21:51 -19.99044 -61.46645 31931 ft 435 kts 326°
2026-04-24 21:51 -19.93966 -61.50135 31935 ft 436 kts 327°
2026-04-24 21:52 -19.88861 -61.53638 31935 ft 437 kts 327°
2026-04-24 21:52 -19.83757 -61.57149 31935 ft 437 kts 327°
2026-04-24 21:53 -19.78659 -61.60664 31936 ft 437 kts 327°
2026-04-24 21:53 -19.73557 -61.64178 31928 ft 437 kts 327°
2026-04-24 21:54 -19.68450 -61.67680 31936 ft 437 kts 327°
2026-04-24 21:54 -19.63350 -61.71192 31933 ft 437 kts 326°
2026-04-24 21:55 -19.58312 -61.74794 31933 ft 437 kts 326°
2026-04-24 21:55 -19.53276 -61.78417 31934 ft 437 kts 326°
2026-04-24 21:56 -19.48236 -61.82035 31932 ft 438 kts 326°
2026-04-24 21:56 -19.43200 -61.85653 31927 ft 438 kts 326°
2026-04-24 21:57 -19.38181 -61.89258 31931 ft 439 kts 326°
2026-04-24 21:57 -19.33122 -61.92891 31928 ft 439 kts 326°
2026-04-24 21:58 -19.28059 -61.96521 31931 ft 439 kts 326°
2026-04-24 21:58 -19.23005 -62.00142 31930 ft 439 kts 326°
2026-04-24 21:59 -19.17942 -62.03764 31928 ft 439 kts 326°
2026-04-24 21:59 -19.12877 -62.07384 31927 ft 441 kts 326°
2026-04-24 22:00 -19.07791 -62.11018 31930 ft 441 kts 326°
2026-04-24 22:00 -19.02709 -62.14652 31929 ft 441 kts 326°
2026-04-24 22:01 -18.97620 -62.18279 31926 ft 441 kts 326°
2026-04-24 22:01 -18.92534 -62.21905 31923 ft 441 kts 326°
2026-04-24 22:02 -18.87447 -62.25533 31925 ft 441 kts 326°
2026-04-24 22:02 -18.82352 -62.29165 31916 ft 442 kts 327°
2026-04-24 22:03 -18.77255 -62.32791 31921 ft 442 kts 327°
2026-04-24 22:03 -18.72154 -62.36416 31922 ft 442 kts 326°
2026-04-24 22:04 -18.67080 -62.40076 31922 ft 442 kts 326°
2026-04-24 22:04 -18.62041 -62.43707 31921 ft 442 kts 326°
2026-04-24 22:05 -18.56952 -62.47373 31916 ft 444 kts 327°
2026-04-24 22:05 -18.51850 -62.51049 31921 ft 444 kts 327°
2026-04-24 22:06 -18.46748 -62.54729 31922 ft 444 kts 327°
2026-04-24 22:06 -18.41653 -62.58390 31922 ft 444 kts 327°
2026-04-24 22:07 -18.36551 -62.62047 31921 ft 444 kts 327°
2026-04-24 22:07 -18.31442 -62.65706 31921 ft 446 kts 327°
2026-04-24 22:08 -18.26312 -62.69380 31915 ft 446 kts 327°
2026-04-24 22:08 -18.21177 -62.73058 31919 ft 446 kts 327°
2026-04-24 22:09 -18.16040 -62.76729 31916 ft 446 kts 327°
2026-04-24 22:09 -18.10906 -62.80396 31920 ft 446 kts 327°
2026-04-24 22:10 -18.05769 -62.84065 31917 ft 446 kts 328°
2026-04-24 22:10 -18.00636 -62.87731 31924 ft 446 kts 328°
2026-04-24 22:11 -17.95502 -62.91393 31928 ft 446 kts 328°
2026-04-24 22:11 -17.90365 -62.95059 31985 ft 447 kts 328°
2026-04-24 22:11 -17.87793 -62.96893 32206 ft 447 kts 328°
2026-04-24 22:12 -17.85224 -62.98725 32459 ft 446 kts 328°
2026-04-24 22:12 -17.82660 -63.00549 32672 ft 445 kts 328°
2026-04-24 22:12 -17.80099 -63.02372 32865 ft 445 kts 328°
2026-04-24 22:12 -17.77537 -63.04201 33034 ft 446 kts 328°
2026-04-24 22:13 -17.74968 -63.06032 33189 ft 447 kts 328°
2026-04-24 22:13 -17.72394 -63.07865 33347 ft 447 kts 328°
2026-04-24 22:13 -17.69815 -63.09697 33517 ft 448 kts 328°
2026-04-24 22:13 -17.67236 -63.11530 33662 ft 448 kts 328°
2026-04-24 22:14 -17.64654 -63.13366 33817 ft 449 kts 328°
2026-04-24 22:14 -17.62087 -63.15149 33955 ft 449 kts 330°
2026-04-24 22:14 -17.59397 -63.16884 33973 ft 448 kts 330°
2026-04-24 22:15 -17.54108 -63.20251 33937 ft 448 kts 331°
2026-04-24 22:15 -17.48785 -63.23649 33929 ft 448 kts 331°
2026-04-24 22:16 -17.43450 -63.27052 33922 ft 449 kts 331°
2026-04-24 22:16 -17.38113 -63.30460 33921 ft 450 kts 331°
2026-04-24 22:17 -17.32767 -63.33858 33919 ft 450 kts 331°
2026-04-24 22:17 -17.27421 -63.37267 33918 ft 450 kts 331°
2026-04-24 22:18 -17.22074 -63.40668 33915 ft 450 kts 331°
2026-04-24 22:18 -17.16701 -63.44084 33914 ft 453 kts 331°
2026-04-24 22:19 -17.11332 -63.47495 33914 ft 451 kts 331°
2026-04-24 22:19 -17.05965 -63.50901 33914 ft 451 kts 331°
2026-04-24 22:20 -17.00605 -63.54308 33916 ft 451 kts 331°
2026-04-24 22:20 -16.95223 -63.57721 33916 ft 453 kts 331°
2026-04-24 22:21 -16.89836 -63.61137 33911 ft 453 kts 331°
2026-04-24 22:21 -16.84446 -63.64551 33912 ft 453 kts 331°
2026-04-24 22:22 -16.79055 -63.67964 33913 ft 453 kts 331°
2026-04-24 22:22 -16.73665 -63.71375 33913 ft 453 kts 331°
2026-04-24 22:23 -16.68319 -63.74755 33919 ft 452 kts 331°
2026-04-24 22:23 -16.62951 -63.78145 33912 ft 452 kts 331°
2026-04-24 22:24 -16.57565 -63.81546 33910 ft 453 kts 331°
2026-04-24 22:24 -16.52176 -63.84949 33909 ft 453 kts 331°
2026-04-24 22:25 -16.46783 -63.88354 33908 ft 453 kts 331°
2026-04-24 22:25 -16.41405 -63.91775 33906 ft 453 kts 331°
2026-04-24 22:26 -16.36933 -63.94617 33910 ft 452 kts 331°
2026-04-24 22:26 -16.31561 -63.98032 33909 ft 453 kts 332°
2026-04-24 22:27 -16.26170 -64.01449 33907 ft 453 kts 332°
2026-04-24 22:27 -16.20783 -64.04862 33906 ft 453 kts 332°
2026-04-24 22:28 -16.15394 -64.08274 33900 ft 453 kts 331°
2026-04-24 22:28 -16.10010 -64.11685 33903 ft 453 kts 331°
2026-04-24 22:29 -16.01922 -64.16802 33901 ft 454 kts 332°
2026-04-24 22:29 -15.96528 -64.20211 33901 ft 454 kts 332°
2026-04-24 22:30 -15.91132 -64.23619 33901 ft 454 kts 332°
2026-04-24 22:30 -15.85738 -64.27023 33899 ft 453 kts 332°
2026-04-24 22:31 -15.80352 -64.30423 33896 ft 453 kts 332°
2026-04-24 22:31 -15.74960 -64.33821 33900 ft 453 kts 332°
2026-04-24 22:32 -15.69568 -64.37217 33900 ft 454 kts 332°
2026-04-24 22:32 -15.64164 -64.40622 33899 ft 454 kts 332°
2026-04-24 22:33 -15.58762 -64.44022 33896 ft 454 kts 332°
2026-04-24 22:33 -15.53363 -64.47421 33896 ft 454 kts 332°
2026-04-24 22:34 -15.47967 -64.50820 33897 ft 454 kts 332°
2026-04-24 22:34 -15.42593 -64.54234 33897 ft 453 kts 332°
2026-04-24 22:35 -15.37214 -64.57644 33894 ft 453 kts 332°
2026-04-24 22:35 -15.31833 -64.61053 33894 ft 453 kts 332°
2026-04-24 22:36 -15.26451 -64.64461 33895 ft 453 kts 332°
2026-04-24 22:36 -15.21071 -64.67863 33894 ft 453 kts 332°
2026-04-24 22:37 -15.15688 -64.71266 33896 ft 453 kts 332°
2026-04-24 22:37 -15.10322 -64.74661 33892 ft 452 kts 332°
2026-04-24 22:38 -15.04987 -64.78025 33897 ft 452 kts 332°
2026-04-24 22:38 -14.99615 -64.81415 33899 ft 452 kts 332°
2026-04-24 22:39 -14.94244 -64.84802 33903 ft 452 kts 332°
2026-04-24 22:39 -14.88871 -64.88189 33905 ft 452 kts 332°
2026-04-24 22:40 -14.83514 -64.91572 33907 ft 450 kts 332°
2026-04-24 22:40 -14.78152 -64.94909 33910 ft 449 kts 333°
2026-04-24 22:41 -14.72752 -64.98168 33901 ft 449 kts 333°
2026-04-24 22:41 -14.67322 -65.01440 33892 ft 453 kts 332°
2026-04-24 22:42 -14.61867 -65.04723 33888 ft 454 kts 332°
2026-04-24 22:42 -14.56415 -65.08008 33886 ft 454 kts 332°
2026-04-24 22:43 -14.50973 -65.11285 33884 ft 452 kts 332°
2026-04-24 22:43 -14.45531 -65.14562 33890 ft 454 kts 332°
2026-04-24 22:44 -14.40070 -65.17850 33895 ft 454 kts 332°
2026-04-24 22:44 -14.34649 -65.21115 33893 ft 454 kts 332°
2026-04-24 22:45 -14.29190 -65.24396 33889 ft 454 kts 332°
2026-04-24 22:45 -14.23730 -65.27676 33898 ft 454 kts 332°
2026-04-24 22:46 -14.18269 -65.30955 33891 ft 456 kts 332°
2026-04-24 22:46 -14.12790 -65.34242 33887 ft 455 kts 332°
2026-04-24 22:47 -14.07325 -65.37519 33891 ft 454 kts 332°
2026-04-24 22:47 -14.01882 -65.40836 33906 ft 455 kts 331°
2026-04-24 22:48 -13.96450 -65.44168 33920 ft 455 kts 331°
2026-04-24 22:48 -13.91009 -65.47495 33924 ft 455 kts 331°
2026-04-24 22:49 -13.85565 -65.50815 33929 ft 455 kts 331°
2026-04-24 22:49 -13.80119 -65.54136 33932 ft 455 kts 331°
2026-04-24 22:50 -13.74680 -65.57454 33926 ft 455 kts 331°
2026-04-24 22:50 -13.69235 -65.60774 33924 ft 455 kts 331°
2026-04-24 22:51 -13.63768 -65.64100 33899 ft 458 kts 330°
2026-04-24 22:51 -13.58318 -65.67421 33892 ft 458 kts 330°
2026-04-24 22:52 -13.52841 -65.70755 33887 ft 457 kts 330°
2026-04-24 22:52 -13.47330 -65.74106 33887 ft 457 kts 330°
2026-04-24 22:53 -13.41858 -65.77435 33895 ft 457 kts 330°
2026-04-24 22:53 -13.36413 -65.80743 33892 ft 457 kts 330°
2026-04-24 22:54 -13.30934 -65.84070 33893 ft 458 kts 330°
2026-04-24 22:54 -13.25459 -65.87393 33888 ft 458 kts 330°
2026-04-24 22:55 -13.19973 -65.90718 33892 ft 458 kts 330°
2026-04-24 22:55 -13.14472 -65.94055 33889 ft 462 kts 330°
2026-04-24 22:56 -13.08929 -65.97418 33891 ft 463 kts 330°
2026-04-24 22:56 -13.03374 -66.00780 33890 ft 463 kts 330°
2026-04-24 22:57 -12.97831 -66.04133 33894 ft 462 kts 330°
2026-04-24 22:57 -12.92295 -66.07487 33892 ft 462 kts 330°
2026-04-24 22:58 -12.86758 -66.10834 33891 ft 462 kts 330°
2026-04-24 22:58 -12.81222 -66.14181 33894 ft 462 kts 330°
2026-04-24 22:59 -12.75680 -66.17530 33892 ft 462 kts 330°
2026-04-24 23:00 -12.67375 -66.22545 33897 ft 462 kts 330°
2026-04-24 23:00 -12.61873 -66.25868 33895 ft 462 kts 330°
2026-04-24 23:01 -12.56324 -66.29216 33897 ft 464 kts 330°
2026-04-24 23:01 -12.50766 -66.32566 33893 ft 463 kts 330°
2026-04-24 23:02 -12.45207 -66.35916 33895 ft 463 kts 330°
2026-04-24 23:02 -12.39653 -66.39255 33898 ft 463 kts 330°
2026-04-24 23:03 -12.34097 -66.42601 33898 ft 463 kts 330°
2026-04-24 23:03 -12.28540 -66.45943 33897 ft 463 kts 330°
2026-04-24 23:04 -12.22979 -66.49283 33897 ft 464 kts 330°
2026-04-24 23:04 -12.17421 -66.52622 33897 ft 463 kts 330°
2026-04-24 23:05 -12.11865 -66.55957 33898 ft 463 kts 330°
2026-04-24 23:05 -12.06315 -66.59291 33900 ft 463 kts 330°
2026-04-24 23:06 -12.00753 -66.62629 33894 ft 464 kts 330°
2026-04-24 23:06 -11.95186 -66.65963 33893 ft 464 kts 330°
2026-04-24 23:07 -11.89622 -66.69303 33897 ft 464 kts 330°
2026-04-24 23:07 -11.84066 -66.72634 33894 ft 463 kts 330°
2026-04-24 23:08 -11.78515 -66.75958 33895 ft 462 kts 330°
2026-04-24 23:08 -11.73004 -66.79259 33890 ft 463 kts 330°
2026-04-24 23:09 -11.67413 -66.82606 33892 ft 463 kts 330°
2026-04-24 23:09 -11.61861 -66.85927 33891 ft 463 kts 330°
2026-04-24 23:10 -11.56338 -66.89227 33889 ft 463 kts 330°
2026-04-24 23:10 -11.50782 -66.92550 33890 ft 463 kts 330°
2026-04-24 23:11 -11.45224 -66.95868 33893 ft 463 kts 330°
2026-04-24 23:11 -11.39663 -66.99191 33892 ft 464 kts 330°
2026-04-24 23:12 -11.34092 -67.02518 33894 ft 464 kts 330°
2026-04-24 23:12 -11.28524 -67.05836 33893 ft 464 kts 330°
2026-04-24 23:13 -11.22957 -67.09154 33894 ft 464 kts 330°
2026-04-24 23:13 -11.17387 -67.12470 33894 ft 464 kts 330°
2026-04-24 23:14 -11.11820 -67.15785 33899 ft 464 kts 330°
2026-04-24 23:14 -11.07188 -67.18545 33893 ft 464 kts 330°
2026-04-24 23:15 -11.01615 -67.21859 33892 ft 464 kts 330°
2026-04-24 23:15 -10.96037 -67.25180 33899 ft 464 kts 330°
2026-04-24 23:16 -10.90462 -67.28501 33896 ft 464 kts 330°
2026-04-24 23:16 -10.84883 -67.31811 33903 ft 464 kts 331°
2026-04-24 23:17 -10.79301 -67.35117 33903 ft 464 kts 330°
2026-04-24 23:17 -10.73726 -67.38431 33903 ft 464 kts 330°
2026-04-24 23:18 -10.68148 -67.41742 33903 ft 464 kts 330°
2026-04-24 23:18 -10.62570 -67.45051 33905 ft 464 kts 330°
2026-04-24 23:19 -10.56990 -67.48367 33903 ft 464 kts 330°
2026-04-24 23:19 -10.51419 -67.51672 33901 ft 464 kts 330°
2026-04-24 23:20 -10.45904 -67.54978 33910 ft 464 kts 330°
2026-04-24 23:20 -10.40377 -67.58376 33908 ft 464 kts 330°
2026-04-24 23:21 -10.34844 -67.61766 33907 ft 464 kts 330°
2026-04-24 23:21 -10.29310 -67.65144 33911 ft 464 kts 330°
2026-04-24 23:22 -10.23770 -67.68521 33909 ft 464 kts 330°
2026-04-24 23:22 -10.18235 -67.71898 33913 ft 464 kts 330°
2026-04-24 23:23 -10.12704 -67.75284 33921 ft 464 kts 330°
2026-04-24 23:23 -10.07185 -67.78652 33923 ft 463 kts 330°
2026-04-24 23:24 -10.01670 -67.82012 33929 ft 463 kts 330°
2026-04-24 23:24 -9.96149 -67.85376 33933 ft 463 kts 330°
2026-04-24 23:25 -9.90626 -67.88740 33935 ft 463 kts 330°
2026-04-24 23:25 -9.85366 -67.92503 33934 ft 464 kts 320°
2026-04-24 23:26 -9.80516 -67.96816 33922 ft 464 kts 320°
2026-04-24 23:26 -9.75676 -68.01111 33922 ft 462 kts 320°
2026-04-24 23:27 -9.70824 -68.05393 33922 ft 462 kts 320°
2026-04-24 23:27 -9.65980 -68.09667 33923 ft 462 kts 320°
2026-04-24 23:28 -9.61130 -68.13945 33920 ft 462 kts 320°
2026-04-24 23:28 -9.56274 -68.18219 33921 ft 462 kts 320°
2026-04-24 23:29 -9.51456 -68.22469 33923 ft 462 kts 320°
2026-04-24 23:29 -9.46600 -68.26747 33923 ft 463 kts 320°
2026-04-24 23:30 -9.41737 -68.31027 33920 ft 463 kts 320°
2026-04-24 23:30 -9.36839 -68.35250 33919 ft 462 kts 324°
2026-04-24 23:31 -9.31658 -68.39102 33921 ft 462 kts 325°
2026-04-24 23:31 -9.26460 -68.42938 33915 ft 462 kts 325°
2026-04-24 23:32 -9.21255 -68.46782 33918 ft 464 kts 325°
2026-04-24 23:32 -9.16032 -68.50640 33915 ft 465 kts 325°
2026-04-24 23:33 -9.10808 -68.54497 33914 ft 464 kts 326°
2026-04-24 23:33 -9.05592 -68.58348 33914 ft 464 kts 326°
2026-04-24 23:34 -9.00379 -68.62196 33913 ft 464 kts 326°
2026-04-24 23:34 -8.95164 -68.66045 33914 ft 464 kts 326°
2026-04-24 23:35 -8.89954 -68.69898 33915 ft 464 kts 325°
2026-04-24 23:35 -8.84744 -68.73747 33912 ft 464 kts 326°
2026-04-24 23:36 -8.79541 -68.77585 33912 ft 462 kts 326°
2026-04-24 23:36 -8.74352 -68.81411 33915 ft 461 kts 325°
2026-04-24 23:37 -8.69165 -68.85238 33919 ft 462 kts 325°
2026-04-24 23:37 -8.61390 -68.90962 33912 ft 460 kts 326°
2026-04-24 23:38 -8.56216 -68.94774 33910 ft 460 kts 326°
2026-04-24 23:38 -8.51079 -68.98558 33910 ft 460 kts 326°
2026-04-24 23:39 -8.45916 -69.02357 33912 ft 459 kts 326°
2026-04-24 23:39 -8.40756 -69.06150 33911 ft 459 kts 326°
2026-04-24 23:40 -8.35600 -69.09947 33912 ft 459 kts 326°
2026-04-24 23:40 -8.30443 -69.13746 33912 ft 459 kts 326°
2026-04-24 23:41 -8.25296 -69.17531 33911 ft 458 kts 326°
2026-04-24 23:41 -8.20140 -69.21316 33909 ft 458 kts 326°
2026-04-24 23:42 -8.14981 -69.25095 33910 ft 459 kts 326°
2026-04-24 23:42 -8.09812 -69.28889 33909 ft 460 kts 326°
2026-04-24 23:43 -8.04639 -69.32686 33905 ft 459 kts 326°
2026-04-24 23:43 -7.99477 -69.36474 33903 ft 459 kts 326°
2026-04-24 23:44 -7.94315 -69.40260 33906 ft 458 kts 326°
2026-04-24 23:44 -7.89158 -69.44043 33905 ft 458 kts 326°
2026-04-24 23:45 -7.83994 -69.47822 33908 ft 458 kts 326°
2026-04-24 23:45 -7.78836 -69.51596 33907 ft 458 kts 326°
2026-04-24 23:46 -7.73680 -69.55378 33906 ft 458 kts 326°
2026-04-24 23:46 -7.68552 -69.59135 33906 ft 458 kts 326°
2026-04-24 23:47 -7.63397 -69.62911 33903 ft 458 kts 326°
2026-04-24 23:47 -7.58235 -69.66691 33906 ft 458 kts 326°
2026-04-24 23:48 -7.53070 -69.70469 33903 ft 458 kts 326°
2026-04-24 23:48 -7.47917 -69.74234 33903 ft 458 kts 326°
2026-04-24 23:49 -7.42764 -69.78004 33907 ft 458 kts 326°
2026-04-24 23:49 -7.37613 -69.81775 33906 ft 458 kts 326°
2026-04-24 23:50 -7.32461 -69.85543 33903 ft 458 kts 326°
2026-04-24 23:50 -7.27302 -69.89314 33903 ft 459 kts 326°
2026-04-24 23:51 -7.22132 -69.93095 33903 ft 459 kts 326°
2026-04-24 23:51 -7.16968 -69.96870 33904 ft 459 kts 326°
2026-04-24 23:52 -7.11789 -70.00651 33903 ft 460 kts 326°
2026-04-24 23:52 -7.06598 -70.04437 33906 ft 461 kts 326°
2026-04-24 23:53 -7.01406 -70.08225 33910 ft 461 kts 326°
2026-04-24 23:53 -6.96212 -70.12017 33903 ft 461 kts 326°
2026-04-24 23:54 -6.91050 -70.15777 33902 ft 461 kts 326°
2026-04-24 23:54 -6.85851 -70.19563 33902 ft 461 kts 326°
2026-04-24 23:55 -6.80659 -70.23352 33904 ft 460 kts 326°
2026-04-24 23:55 -6.75467 -70.27136 33903 ft 462 kts 326°
2026-04-24 23:56 -6.70256 -70.30926 33905 ft 463 kts 326°
2026-04-24 23:56 -6.65033 -70.34732 33906 ft 463 kts 326°
2026-04-24 23:57 -6.59795 -70.38515 33901 ft 463 kts 327°
2026-04-24 23:57 -6.54568 -70.42309 33903 ft 463 kts 326°
2026-04-24 23:58 -6.49345 -70.46106 33907 ft 463 kts 326°
2026-04-24 23:58 -6.44123 -70.49906 33907 ft 464 kts 326°
2026-04-24 23:59 -6.38895 -70.53713 33905 ft 464 kts 326°
2026-04-24 23:59 -6.33679 -70.57500 33906 ft 461 kts 326°
2026-04-25 00:00 -6.28476 -70.61280 33912 ft 462 kts 326°
2026-04-25 00:00 -6.23276 -70.65065 33908 ft 462 kts 326°
2026-04-25 00:01 -6.18074 -70.68846 33905 ft 462 kts 326°
2026-04-25 00:01 -6.12870 -70.72622 33905 ft 461 kts 326°
2026-04-25 00:02 -6.07659 -70.76407 33903 ft 464 kts 326°
2026-04-25 00:02 -6.02413 -70.80217 33906 ft 466 kts 326°
2026-04-25 00:03 -5.98042 -70.83386 33905 ft 466 kts 326°
2026-04-25 00:03 -5.92790 -70.87196 33905 ft 466 kts 326°
2026-04-25 00:04 -5.86677 -70.91639 33907 ft 467 kts 327°
2026-04-25 00:04 -5.81373 -70.95482 33907 ft 467 kts 327°
2026-04-25 00:05 -5.76991 -70.98657 33908 ft 467 kts 327°
2026-04-25 00:05 -5.71712 -71.02482 33909 ft 469 kts 326°
2026-04-25 00:06 -5.66429 -71.06313 33906 ft 468 kts 326°
2026-04-25 00:06 -5.61178 -71.10117 33909 ft 468 kts 326°
2026-04-25 00:07 -5.55902 -71.13946 33909 ft 468 kts 326°
2026-04-25 00:07 -5.50616 -71.17765 33909 ft 468 kts 326°
2026-04-25 00:08 -5.45333 -71.21592 33911 ft 468 kts 326°
2026-04-25 00:08 -5.40049 -71.25415 33913 ft 468 kts 327°
2026-04-25 00:09 -5.34762 -71.29242 34182 ft 468 kts 326°
2026-04-25 00:09 -5.32120 -71.31159 34376 ft 468 kts 326°
2026-04-25 00:09 -5.29478 -71.33070 34548 ft 468 kts 326°
2026-04-25 00:10 -5.26830 -71.34981 34711 ft 469 kts 326°
2026-04-25 00:10 -5.24185 -71.36892 34866 ft 469 kts 326°
2026-04-25 00:10 -5.21538 -71.38809 35023 ft 469 kts 326°
2026-04-25 00:10 -5.18892 -71.40725 35179 ft 470 kts 326°
2026-04-25 00:11 -5.16234 -71.42643 35321 ft 470 kts 326°
2026-04-25 00:11 -5.13582 -71.44561 35464 ft 470 kts 326°
2026-04-25 00:11 -5.10925 -71.46481 35593 ft 471 kts 326°
2026-04-25 00:11 -5.08263 -71.48409 35714 ft 472 kts 326°
2026-04-25 00:12 -5.05598 -71.50334 35840 ft 473 kts 326°
2026-04-25 00:12 -5.02931 -71.52260 35936 ft 473 kts 327°
2026-04-25 00:12 -4.97600 -71.56111 35935 ft 472 kts 327°
2026-04-25 00:13 -4.92261 -71.59965 35917 ft 474 kts 327°
2026-04-25 00:13 -4.86907 -71.63835 35918 ft 474 kts 327°
2026-04-25 00:14 -4.81556 -71.67694 35909 ft 474 kts 327°
2026-04-25 00:14 -4.76209 -71.71554 35911 ft 473 kts 327°
2026-04-25 00:15 -4.70859 -71.75415 35912 ft 473 kts 327°
2026-04-25 00:15 -4.65522 -71.79268 35910 ft 472 kts 326°
2026-04-25 00:16 -4.60188 -71.83116 35909 ft 472 kts 327°
2026-04-25 00:16 -4.54859 -71.86958 35907 ft 472 kts 326°
2026-04-25 00:17 -4.49520 -71.90809 35910 ft 473 kts 326°
2026-04-25 00:17 -4.44189 -71.94642 35915 ft 475 kts 327°
2026-04-25 00:18 -4.38818 -71.98501 35908 ft 475 kts 327°
2026-04-25 00:18 -4.33441 -72.02366 35908 ft 476 kts 327°
2026-04-25 00:19 -4.28055 -72.06236 35905 ft 477 kts 327°
2026-04-25 00:19 -4.22662 -72.10107 35908 ft 477 kts 327°
2026-04-25 00:20 -4.17271 -72.13981 35904 ft 477 kts 327°
2026-04-25 00:20 -4.11877 -72.17854 35906 ft 477 kts 327°
2026-04-25 00:21 -4.06490 -72.21719 35901 ft 477 kts 326°
2026-04-25 00:21 -4.01098 -72.25592 35911 ft 477 kts 327°
2026-04-25 00:22 -3.95705 -72.29460 35908 ft 477 kts 327°
2026-04-25 00:22 -3.90314 -72.33333 35900 ft 477 kts 327°
2026-04-25 00:23 -3.84931 -72.37195 35900 ft 476 kts 327°
2026-04-25 00:23 -3.79542 -72.41057 35896 ft 476 kts 327°
2026-04-25 00:24 -3.74165 -72.44914 35902 ft 476 kts 327°
2026-04-25 00:24 -3.68777 -72.48779 35904 ft 475 kts 327°
2026-04-25 00:25 -3.63409 -72.52620 35894 ft 474 kts 327°
2026-04-25 00:25 -3.58039 -72.56471 35900 ft 475 kts 327°
2026-04-25 00:26 -3.52667 -72.60321 35902 ft 475 kts 327°
2026-04-25 00:26 -3.47309 -72.64166 35896 ft 473 kts 327°
2026-04-25 00:27 -3.41966 -72.67998 35903 ft 473 kts 327°
2026-04-25 00:27 -3.36621 -72.71827 35894 ft 472 kts 327°
2026-04-25 00:28 -3.31277 -72.75649 35901 ft 472 kts 327°
2026-04-25 00:28 -3.25938 -72.79476 35906 ft 473 kts 327°
2026-04-25 00:29 -3.20587 -72.83307 35900 ft 473 kts 327°
2026-04-25 00:29 -3.15239 -72.87144 35904 ft 473 kts 327°
2026-04-25 00:30 -3.09921 -72.90958 35900 ft 474 kts 327°
2026-04-25 00:30 -3.04571 -72.94815 35901 ft 474 kts 327°
2026-04-25 00:31 -2.99221 -72.98648 35900 ft 473 kts 327°
2026-04-25 00:31 -2.93703 -73.02170 35896 ft 468 kts 339°
2026-04-25 00:32 -2.87601 -73.04331 35906 ft 465 kts 345°
2026-04-25 00:32 -2.81449 -73.06342 35909 ft 465 kts 345°
2026-04-25 00:33 -2.75311 -73.08399 35911 ft 466 kts 345°
2026-04-25 00:33 -2.69172 -73.10459 35914 ft 466 kts 345°
2026-04-25 00:34 -2.63021 -73.12511 35909 ft 466 kts 345°
2026-04-25 00:34 -2.56874 -73.14572 35909 ft 466 kts 345°
2026-04-25 00:35 -2.50727 -73.16636 35915 ft 467 kts 345°
2026-04-25 00:35 -2.44568 -73.18697 35915 ft 467 kts 345°
2026-04-25 00:36 -2.38410 -73.20762 35921 ft 467 kts 345°
2026-04-25 00:36 -2.32252 -73.22820 35916 ft 467 kts 345°
2026-04-25 00:37 -2.26096 -73.24882 35916 ft 467 kts 345°
2026-04-25 00:37 -2.19941 -73.26943 35918 ft 466 kts 345°
2026-04-25 00:38 -2.13838 -73.28989 35922 ft 466 kts 344°
2026-04-25 00:38 -2.07658 -73.31060 35922 ft 465 kts 344°
2026-04-25 00:39 -2.01525 -73.33128 35923 ft 465 kts 344°
2026-04-25 00:39 -1.95388 -73.35183 35924 ft 465 kts 345°
2026-04-25 00:40 -1.89298 -73.37223 35921 ft 465 kts 345°
2026-04-25 00:40 -1.83166 -73.39274 35926 ft 465 kts 344°
2026-04-25 00:41 -1.77033 -73.41336 35927 ft 465 kts 344°
2026-04-25 00:41 -1.70853 -73.43406 35924 ft 465 kts 344°
2026-04-25 00:42 -1.64762 -73.45449 35926 ft 465 kts 345°
2026-04-25 00:42 -1.58614 -73.47483 35930 ft 465 kts 344°
2026-04-25 00:43 -1.52479 -73.49535 35928 ft 465 kts 344°
2026-04-25 00:43 -1.46335 -73.51585 35926 ft 465 kts 344°
2026-04-25 00:44 -1.40199 -73.53639 35929 ft 465 kts 344°
2026-04-25 00:44 -1.34062 -73.55695 35932 ft 465 kts 344°
2026-04-25 00:45 -1.27919 -73.57751 35925 ft 466 kts 344°
2026-04-25 00:45 -1.21770 -73.59801 35924 ft 466 kts 344°
2026-04-25 00:46 -1.15629 -73.61872 35923 ft 466 kts 344°
2026-04-25 00:46 -1.09763 -73.64675 35929 ft 471 kts 332°
2026-04-25 00:47 -1.06943 -73.66372 35934 ft 474 kts 330°
2026-04-25 00:47 -1.01303 -73.69781 35929 ft 474 kts 331°
2026-04-25 00:48 -0.95649 -73.73160 35926 ft 474 kts 331°
2026-04-25 00:48 -0.89990 -73.76537 35927 ft 474 kts 331°
2026-04-25 00:49 -0.84326 -73.79918 35927 ft 474 kts 331°
2026-04-25 00:49 -0.78673 -73.83291 35928 ft 473 kts 331°
2026-04-25 00:50 -0.73980 -73.86088 35931 ft 472 kts 331°
2026-04-25 00:50 -0.67416 -73.89997 35930 ft 473 kts 331°
2026-04-25 00:51 -0.61767 -73.93360 35933 ft 473 kts 331°
2026-04-25 00:51 -0.57042 -73.96176 35935 ft 473 kts 331°
2026-04-25 00:52 -0.51390 -73.99551 35934 ft 473 kts 331°
2026-04-25 00:52 -0.45760 -74.02912 35931 ft 471 kts 331°
2026-04-25 00:53 -0.40141 -74.06265 35929 ft 471 kts 331°
2026-04-25 00:53 -0.34520 -74.09619 35926 ft 471 kts 331°
2026-04-25 00:54 -0.28908 -74.12969 35935 ft 469 kts 331°
2026-04-25 00:54 -0.23300 -74.16317 35929 ft 469 kts 331°
2026-04-25 00:55 -0.17731 -74.19640 35933 ft 469 kts 331°
2026-04-25 00:55 -0.12122 -74.22986 35927 ft 470 kts 331°
2026-04-25 00:56 -0.06517 -74.26331 35929 ft 469 kts 331°
2026-04-25 00:56 -0.00921 -74.29682 35934 ft 469 kts 331°
2026-04-25 00:57 0.04659 -74.33012 35930 ft 466 kts 330°
2026-04-25 00:57 0.10226 -74.36336 35927 ft 466 kts 331°
2026-04-25 00:58 0.15791 -74.39659 35923 ft 466 kts 331°
2026-04-25 00:58 0.21362 -74.42964 35927 ft 466 kts 331°
2026-04-25 00:59 0.26930 -74.46281 35926 ft 466 kts 331°
2026-04-25 00:59 0.32496 -74.49602 35926 ft 466 kts 331°
2026-04-25 01:00 0.38061 -74.52920 35925 ft 466 kts 331°
2026-04-25 01:00 0.43634 -74.56249 35925 ft 467 kts 331°
2026-04-25 01:01 0.49215 -74.59579 35929 ft 467 kts 331°
2026-04-25 01:01 0.54796 -74.62905 35920 ft 467 kts 331°
2026-04-25 01:02 0.60375 -74.66235 35925 ft 467 kts 331°
2026-04-25 01:02 0.65961 -74.69571 35928 ft 468 kts 331°
2026-04-25 01:03 0.71546 -74.72903 35921 ft 468 kts 331°
2026-04-25 01:03 0.77134 -74.76239 35926 ft 467 kts 331°
2026-04-25 01:04 0.82701 -74.79562 35921 ft 466 kts 331°
2026-04-25 01:04 0.88273 -74.82889 35927 ft 466 kts 331°
2026-04-25 01:05 0.93846 -74.86215 35920 ft 466 kts 331°
2026-04-25 01:05 0.99413 -74.89547 35924 ft 466 kts 331°
2026-04-25 01:06 1.04982 -74.92867 35929 ft 467 kts 331°
2026-04-25 01:06 1.10568 -74.96200 35929 ft 468 kts 331°
2026-04-25 01:07 1.16098 -74.99502 35922 ft 465 kts 331°
2026-04-25 01:07 1.21640 -75.02811 35926 ft 464 kts 331°
2026-04-25 01:08 1.27188 -75.06121 35928 ft 464 kts 331°
2026-04-25 01:08 1.32721 -75.09428 35922 ft 463 kts 331°
2026-04-25 01:09 1.38250 -75.12729 35927 ft 463 kts 331°
2026-04-25 01:09 1.43775 -75.16033 35925 ft 462 kts 331°
2026-04-25 01:10 1.49289 -75.19333 35934 ft 461 kts 330°
2026-04-25 01:10 1.54787 -75.22615 35941 ft 460 kts 330°
2026-04-25 01:11 1.60276 -75.25898 35938 ft 460 kts 330°
2026-04-25 01:11 1.65766 -75.29177 35950 ft 460 kts 330°
2026-04-25 01:12 1.71259 -75.32454 35949 ft 460 kts 330°
2026-04-25 01:12 1.76776 -75.35747 35957 ft 464 kts 330°
2026-04-25 01:13 1.82330 -75.39065 35974 ft 465 kts 330°
2026-04-25 01:13 1.87888 -75.42388 35985 ft 467 kts 330°
2026-04-25 01:14 1.93470 -75.45725 36015 ft 468 kts 330°
2026-04-25 01:14 1.99059 -75.49068 36016 ft 468 kts 330°
2026-04-25 01:15 2.04648 -75.52407 36017 ft 468 kts 330°
2026-04-25 01:15 2.10229 -75.55745 36022 ft 468 kts 330°
2026-04-25 01:16 2.15816 -75.59080 36029 ft 467 kts 330°
2026-04-25 01:16 2.21400 -75.62414 36025 ft 467 kts 330°
2026-04-25 01:17 2.26981 -75.65751 36004 ft 467 kts 330°
2026-04-25 01:17 2.32556 -75.69089 36004 ft 467 kts 330°
2026-04-25 01:18 2.38093 -75.72401 36001 ft 467 kts 330°
2026-04-25 01:18 2.43666 -75.75738 36000 ft 467 kts 330°
2026-04-25 01:19 2.49237 -75.79070 36025 ft 467 kts 330°
2026-04-25 01:19 2.54826 -75.82410 36045 ft 468 kts 330°
2026-04-25 01:20 2.60417 -75.85753 36048 ft 469 kts 330°
2026-04-25 01:20 2.66045 -75.89120 36050 ft 472 kts 330°
2026-04-25 01:21 2.71684 -75.92492 36072 ft 472 kts 330°
2026-04-25 01:21 2.77317 -75.95866 36103 ft 472 kts 330°
2026-04-25 01:22 2.82956 -75.99239 36123 ft 472 kts 330°
2026-04-25 01:22 2.88597 -76.02612 36125 ft 472 kts 330°
2026-04-25 01:23 2.94232 -76.05978 36122 ft 471 kts 330°
2026-04-25 01:23 2.99861 -76.09350 36113 ft 472 kts 330°
2026-04-25 01:24 3.05467 -76.12707 36114 ft 473 kts 330°
2026-04-25 01:24 3.11147 -76.16113 36113 ft 473 kts 330°
2026-04-25 01:25 3.16802 -76.19501 36100 ft 474 kts 330°
2026-04-25 01:25 3.22446 -76.22884 36065 ft 473 kts 330°
2026-04-25 01:26 3.28103 -76.26266 36054 ft 474 kts 330°
2026-04-25 01:26 3.33756 -76.29652 36054 ft 473 kts 330°
2026-04-25 01:27 3.39403 -76.33041 36050 ft 473 kts 330°
2026-04-25 01:27 3.45053 -76.36425 36034 ft 473 kts 330°
2026-04-25 01:28 3.53524 -76.41503 36050 ft 473 kts 330°
2026-04-25 01:28 3.59175 -76.44893 36052 ft 473 kts 330°
2026-04-25 01:29 3.64782 -76.48254 36050 ft 473 kts 330°
2026-04-25 01:29 3.70421 -76.51640 36042 ft 473 kts 330°
2026-04-25 01:30 3.76055 -76.55027 36027 ft 473 kts 330°
2026-04-25 01:30 3.81701 -76.58418 36025 ft 473 kts 330°
2026-04-25 01:31 3.87342 -76.61800 36016 ft 472 kts 330°
2026-04-25 01:31 3.92975 -76.65180 35998 ft 471 kts 330°
2026-04-25 01:32 3.98611 -76.68557 36001 ft 472 kts 330°
2026-04-25 01:32 4.04242 -76.71936 35995 ft 471 kts 330°
2026-04-25 01:33 4.09870 -76.75317 35997 ft 472 kts 330°
2026-04-25 01:33 4.15512 -76.78703 35999 ft 473 kts 330°
2026-04-25 01:34 4.21154 -76.82086 35965 ft 473 kts 330°
2026-04-25 01:34 4.26793 -76.85471 35962 ft 473 kts 330°
2026-04-25 01:35 4.32430 -76.88862 35958 ft 472 kts 330°
2026-04-25 01:35 4.38053 -76.92248 35960 ft 471 kts 330°
2026-04-25 01:36 4.43669 -76.95624 35950 ft 471 kts 330°
2026-04-25 01:36 4.49250 -76.98981 35945 ft 472 kts 330°
2026-04-25 01:37 4.54885 -77.02371 35946 ft 472 kts 330°
2026-04-25 01:37 4.60520 -77.05763 35942 ft 473 kts 330°
2026-04-25 01:38 4.65247 -77.08604 35942 ft 473 kts 330°
2026-04-25 01:38 4.70886 -77.11992 35944 ft 472 kts 330°
2026-04-25 01:39 4.76525 -77.15379 35950 ft 472 kts 330°
2026-04-25 01:39 4.82130 -77.18741 35947 ft 473 kts 330°
2026-04-25 01:40 4.87765 -77.22136 35953 ft 473 kts 330°
2026-04-25 01:40 4.93410 -77.25537 35979 ft 473 kts 330°
2026-04-25 01:41 4.99050 -77.28933 35980 ft 473 kts 330°
2026-04-25 01:41 5.04697 -77.32335 35978 ft 473 kts 330°
2026-04-25 01:42 5.10343 -77.35733 35992 ft 473 kts 330°
2026-04-25 01:42 5.15982 -77.39130 35981 ft 473 kts 330°
2026-04-25 01:43 5.21626 -77.42532 35981 ft 473 kts 329°
2026-04-25 01:43 5.27264 -77.45928 35982 ft 472 kts 329°
2026-04-25 01:44 5.32890 -77.49320 35986 ft 472 kts 329°
2026-04-25 01:44 5.38513 -77.52718 35973 ft 472 kts 329°
2026-04-25 01:45 5.44147 -77.56112 35971 ft 472 kts 329°
2026-04-25 01:45 5.49771 -77.59507 35970 ft 472 kts 329°
2026-04-25 01:46 5.55376 -77.62893 35971 ft 468 kts 329°
2026-04-25 01:46 5.60954 -77.66258 35971 ft 467 kts 329°
2026-04-25 01:47 5.66521 -77.69622 35957 ft 467 kts 329°
2026-04-25 01:47 5.72082 -77.72978 35954 ft 467 kts 329°
2026-04-25 01:48 5.77650 -77.76335 35954 ft 467 kts 329°
2026-04-25 01:48 5.83215 -77.79698 35956 ft 467 kts 329°
2026-04-25 01:49 5.88742 -77.83037 35942 ft 467 kts 329°
2026-04-25 01:49 5.94307 -77.86400 35941 ft 467 kts 329°
2026-04-25 01:50 5.99910 -77.89786 35937 ft 467 kts 329°
2026-04-25 01:50 6.05439 -77.93126 35938 ft 467 kts 329°
2026-04-25 01:51 6.11006 -77.96496 35934 ft 467 kts 329°
2026-04-25 01:51 6.16562 -77.99862 35932 ft 466 kts 329°
2026-04-25 01:52 6.22114 -78.03220 35931 ft 466 kts 329°
2026-04-25 01:52 6.27663 -78.06577 35932 ft 466 kts 329°
2026-04-25 01:53 6.33212 -78.09937 35932 ft 466 kts 329°
2026-04-25 01:53 6.38758 -78.13305 35929 ft 466 kts 328°
2026-04-25 01:54 6.44309 -78.16670 35931 ft 466 kts 328°
2026-04-25 01:54 6.49867 -78.20032 35931 ft 466 kts 328°
2026-04-25 01:55 6.55420 -78.23396 35931 ft 466 kts 328°
2026-04-25 01:55 6.60976 -78.26767 35932 ft 466 kts 328°
2026-04-25 01:56 6.66526 -78.30131 35932 ft 466 kts 328°
2026-04-25 01:56 6.72158 -78.33365 35927 ft 467 kts 336°
2026-04-25 01:57 6.81423 -78.36464 35937 ft 469 kts 342°
2026-04-25 01:58 6.87647 -78.38457 35931 ft 469 kts 342°
2026-04-25 01:58 6.93861 -78.40462 35932 ft 469 kts 342°
2026-04-25 01:59 7.00029 -78.42460 35933 ft 469 kts 342°
2026-04-25 01:59 7.06241 -78.44472 35933 ft 469 kts 342°
2026-04-25 02:00 7.12450 -78.46484 35948 ft 469 kts 342°
2026-04-25 02:00 7.18654 -78.48496 35937 ft 468 kts 342°
2026-04-25 02:01 7.24833 -78.50501 35935 ft 466 kts 342°
2026-04-25 02:01 7.30999 -78.52495 35931 ft 464 kts 342°
2026-04-25 02:02 7.37131 -78.54483 35934 ft 462 kts 342°
2026-04-25 02:02 7.43243 -78.56463 35939 ft 461 kts 342°
2026-04-25 02:03 7.49341 -78.58441 35934 ft 462 kts 342°
2026-04-25 02:03 7.55508 -78.60448 35939 ft 468 kts 342°
2026-04-25 02:04 7.61714 -78.62465 35935 ft 469 kts 342°
2026-04-25 02:04 7.67906 -78.64475 35613 ft 463 kts 342°
2026-04-25 02:04 7.70962 -78.65467 35354 ft 461 kts 342°
2026-04-25 02:05 7.74008 -78.66454 35109 ft 459 kts 342°
2026-04-25 02:05 7.77043 -78.67441 34877 ft 458 kts 342°
2026-04-25 02:05 7.80073 -78.68427 34650 ft 457 kts 342°
2026-04-25 02:05 7.83086 -78.69406 34420 ft 454 kts 342°
2026-04-25 02:06 7.86088 -78.70382 34205 ft 452 kts 342°
2026-04-25 02:06 7.89075 -78.71352 33973 ft 451 kts 342°
2026-04-25 02:06 7.92057 -78.72324 33717 ft 449 kts 342°
2026-04-25 02:06 7.94989 -78.73279 33458 ft 447 kts 342°
2026-04-25 02:07 7.97936 -78.74236 33042 ft 443 kts 342°
2026-04-25 02:07 8.00864 -78.75188 32552 ft 440 kts 342°
2026-04-25 02:07 8.03767 -78.76131 32013 ft 438 kts 342°
2026-04-25 02:07 8.06663 -78.77073 31462 ft 436 kts 342°
2026-04-25 02:08 8.09541 -78.78012 30916 ft 435 kts 342°
2026-04-25 02:08 8.12414 -78.78947 30400 ft 432 kts 341°
2026-04-25 02:08 8.15266 -78.79875 29866 ft 430 kts 341°
2026-04-25 02:08 8.18107 -78.80800 29251 ft 427 kts 341°
2026-04-25 02:09 8.20899 -78.81711 28879 ft 415 kts 341°
2026-04-25 02:09 8.23514 -78.82815 28415 ft 402 kts 327°
2026-04-25 02:09 8.25699 -78.84523 27868 ft 394 kts 316°
2026-04-25 02:09 8.27667 -78.86415 27346 ft 389 kts 315°
2026-04-25 02:10 8.29601 -78.88308 26860 ft 385 kts 315°
2026-04-25 02:10 8.31523 -78.90168 26388 ft 381 kts 316°
2026-04-25 02:10 8.33434 -78.91996 25927 ft 377 kts 316°
2026-04-25 02:10 8.35329 -78.93797 25478 ft 372 kts 316°
2026-04-25 02:11 8.37204 -78.95576 25047 ft 368 kts 316°
2026-04-25 02:11 8.39060 -78.97334 24619 ft 364 kts 316°
2026-04-25 02:11 8.40894 -78.99072 24181 ft 360 kts 316°
2026-04-25 02:11 8.42714 -79.00797 23737 ft 357 kts 316°
2026-04-25 02:12 8.44521 -79.02512 23253 ft 355 kts 316°
2026-04-25 02:12 8.46310 -79.04209 22735 ft 352 kts 316°
2026-04-25 02:12 8.48091 -79.05895 22236 ft 349 kts 316°
2026-04-25 02:12 8.49856 -79.07568 21733 ft 346 kts 316°
2026-04-25 02:13 8.51605 -79.09227 21230 ft 344 kts 316°
2026-04-25 02:13 8.53345 -79.10878 20753 ft 342 kts 316°
2026-04-25 02:13 8.55070 -79.12514 20275 ft 339 kts 316°
2026-04-25 02:13 8.56787 -79.14142 19802 ft 337 kts 316°
2026-04-25 02:14 8.58470 -79.15737 19330 ft 335 kts 316°
2026-04-25 02:14 8.60189 -79.17367 18860 ft 334 kts 316°
2026-04-25 02:14 8.61857 -79.18950 18457 ft 332 kts 316°
2026-04-25 02:14 8.63538 -79.20547 18050 ft 331 kts 316°
2026-04-25 02:15 8.65233 -79.22155 17606 ft 329 kts 316°
2026-04-25 02:15 8.66871 -79.23710 17220 ft 325 kts 316°
2026-04-25 02:15 8.68492 -79.25250 16933 ft 316 kts 316°
2026-04-25 02:15 8.70075 -79.26753 16566 ft 310 kts 316°
2026-04-25 02:16 8.71643 -79.28243 16118 ft 308 kts 316°
2026-04-25 02:16 8.73201 -79.29721 15694 ft 306 kts 316°
2026-04-25 02:16 8.74749 -79.31190 15257 ft 304 kts 316°
2026-04-25 02:16 8.76284 -79.32648 14835 ft 302 kts 316°
2026-04-25 02:17 8.77806 -79.34094 14425 ft 300 kts 316°
2026-04-25 02:17 8.79476 -79.35344 13991 ft 299 kts 333°
2026-04-25 02:17 8.81473 -79.35880 13528 ft 300 kts 357°
2026-04-25 02:17 8.83523 -79.35531 13045 ft 301 kts 21°
2026-04-25 02:18 8.85291 -79.34413 12595 ft 301 kts 38°
2026-04-25 02:18 8.86878 -79.33047 12179 ft 299 kts 40°
2026-04-25 02:18 8.88450 -79.31681 11749 ft 297 kts 39°
2026-04-25 02:18 8.90026 -79.30342 11338 ft 295 kts 39°
2026-04-25 02:19 8.91602 -79.29023 10936 ft 293 kts 39°
2026-04-25 02:19 8.93178 -79.27722 10532 ft 292 kts 38°
2026-04-25 02:19 8.94744 -79.26435 10177 ft 288 kts 38°
2026-04-25 02:19 8.96281 -79.25186 9972 ft 279 kts 36°
2026-04-25 02:20 8.97913 -79.24179 9643 ft 274 kts 26°
2026-04-25 02:20 8.99618 -79.23337 9244 ft 272 kts 25°
2026-04-25 02:20 9.01315 -79.22513 8851 ft 270 kts 25°
2026-04-25 02:20 9.03006 -79.21687 8457 ft 269 kts 25°
2026-04-25 02:21 9.04662 -79.20874 8084 ft 267 kts 25°
2026-04-25 02:21 9.06321 -79.20054 7806 ft 262 kts 25°
2026-04-25 02:21 9.07929 -79.19258 7558 ft 254 kts 25°
2026-04-25 02:21 9.09492 -79.18485 7324 ft 245 kts 25°
2026-04-25 02:22 9.11010 -79.17732 7009 ft 241 kts 25°
2026-04-25 02:22 9.12509 -79.16990 6635 ft 239 kts 25°
2026-04-25 02:22 9.14005 -79.16251 6247 ft 238 kts 26°
2026-04-25 02:22 9.15481 -79.15516 5923 ft 235 kts 26°
2026-04-25 02:23 9.16902 -79.14737 5684 ft 230 kts 31°
2026-04-25 02:23 9.18262 -79.14081 5740 ft 204 kts 16°
2026-04-25 02:23 9.19644 -79.13782 5702 ft 204 kts 357°
2026-04-25 02:23 9.20912 -79.14322 5487 ft 201 kts 314°
2026-04-25 02:24 9.21530 -79.15555 5261 ft 198 kts 285°
2026-04-25 02:24 9.21971 -79.16868 4983 ft 197 kts 290°
2026-04-25 02:24 9.22502 -79.18141 4757 ft 197 kts 292°
2026-04-25 02:24 9.23076 -79.19401 4755 ft 197 kts 294°
2026-04-25 02:25 9.23668 -79.20654 4773 ft 197 kts 294°
2026-04-25 02:25 9.24009 -79.21972 4532 ft 194 kts 264°
2026-04-25 02:25 9.23441 -79.23169 4204 ft 192 kts 225°
2026-04-25 02:25 9.22453 -79.24069 3924 ft 191 kts 222°
2026-04-25 02:26 9.21495 -79.24994 3627 ft 190 kts 224°
2026-04-25 02:26 9.20561 -79.25942 3330 ft 190 kts 225°
2026-04-25 02:26 9.19638 -79.26896 3030 ft 189 kts 225°
2026-04-25 02:26 9.19031 -79.27528 2831 ft 189 kts 225°
2026-04-25 02:27 9.18117 -79.28481 2713 ft 190 kts 225°
2026-04-25 02:27 9.17197 -79.29442 2358 ft 191 kts 225°
2026-04-25 02:27 9.16364 -79.30471 2065 ft 186 kts 231°
2026-04-25 02:27 9.15565 -79.31448 1825 ft 175 kts 228°
2026-04-25 02:28 9.14785 -79.32301 1635 ft 154 kts 226°
2026-04-25 02:28 9.14111 -79.33042 1420 ft 139 kts 226°
2026-04-25 02:28 9.13448 -79.33746 1215 ft 138 kts 226°
2026-04-25 02:28 9.12791 -79.34450 1035 ft 137 kts 225°
2026-04-25 02:29 9.12117 -79.35133 861 ft 137 kts 224°
2026-04-25 02:29 9.11440 -79.35810 693 ft 137 kts 224°
2026-04-25 02:29 9.10768 -79.36486 478 ft 136 kts 223°
2026-04-25 02:29 9.10029 -79.37084 242 ft 136 kts 213°
2026-04-25 02:30 9.09213 -79.37570 46 ft 136 kts 210°
2026-04-25 02:30 9.08495 -79.38000 45 ft 102 kts 211°
2026-04-25 02:30 9.08058 -79.38263 49 ft 42 kts 211°
2026-04-25 02:30 9.07817 -79.38408 53 ft 40 kts 211°
2026-04-25 02:31 9.07597 -79.38540 53 ft 31 kts 211°
2026-04-25 02:31 9.07458 -79.38625 54 ft 17 kts 210°
2026-04-25 02:31 9.07351 -79.38688 54 ft 18 kts 211°
2026-04-25 02:31 9.07268 -79.38677 52 ft 9 kts 120°
2026-04-25 02:32 9.07255 -79.38621 53 ft 9 kts 101°
2026-04-25 02:32 9.07214 -79.38578 53 ft 12 kts 204°
2026-04-25 02:32 9.07149 -79.38623 53 ft 6 kts 210°
2026-04-25 02:32 9.07108 -79.38606 52 ft 8 kts 119°
2026-04-25 02:33 9.07097 -79.38585 53 ft 0 kts 120°